Location: Unspecified
(42.9300°N, 71.1866°W)
Time: 12:27:04
(UTC-04:00)

GENESIS II - Visible Passes

Search period start: 31 October 2014 00:00
Search period end: 09 November 2014 23:00
Orbit: 525 x 540 km, 64.5° (Epoch: 31 October)

Date Brightness Start Highest point End Pass type
(mag) Time Alt. Az. Time Alt. Az. Time Alt. Az.
04 Nov 6.8 18:51:15 10° NNW 18:51:47 13° N 18:51:47 13° N visible
05 Nov 6.4 18:40:40 10° NNW 18:41:49 17° N 18:41:49 17° N visible
06 Nov 6.0 18:30:04 10° NNW 18:31:56 22° N 18:31:56 22° N visible
07 Nov 5.3 18:19:28 10° NNW 18:22:10 31° NNE 18:22:10 31° NNE visible
08 Nov 4.7 18:08:52 10° NNW 18:12:32 43° NE 18:12:32 43° NE visible
08 Nov 7.6 19:47:37 10° WNW 19:47:54 11° WNW 19:47:54 11° WNW visible
09 Nov 4.4 17:58:16 10° NNW 18:02:12 49° NE 18:03:06 40° E visible
09 Nov 7.3 19:37:19 10° WNW 19:38:29 14° W 19:38:29 14° W visible
